Location: Newark
(44.2003°N, 3.2583°E)
Time: 06:53:29
(UTC+00:00)

Courier 1B Rocket - Pass Details

Date: 29 October 2019
Orbit: 920 x 1202 km, 28.2° (Epoch: 16 November)

Event Time Altitude Azimuth Distance (km) Brightness Sun altitude
Exits shadow 03:34:19 10° 172° (S) 2,601 7.2 -30.0°
Drops below altitude 10° 03:34:26 10° 171° (S) 2,618 7.2 -30.0°
Sets 03:38:36 0° 145° (SE) 3,540 8.2 -29.3°
